Jackson, WY

7:59 PM MDT on August 23, 2017 (GMT -0600)
Jackson Hole

Weather History for KJAC - November, 2012

Change the Weather History Date:

Saturday, November 3, 2012

  Actual Average Record
Temperature  
Mean Temperature 35 °F -  
Max Temperature 51 °F 43 °F 71 °F (1997)
Min Temperature 19 °F 18 °F -12 °F (1991)
Degree Days  
Heating Degree Days 30    
Moisture  
Dew Point 23 °F    
Average Humidity 77    
Maximum Humidity 100    
Minimum Humidity 30    
Precipitation  
Precipitation 0.00 in - - ()
Sea Level Pressure  
Sea Level Pressure 30.24 in    
Wind  
Wind Speed 4 mph (NNE)    
Max Wind Speed 8 mph    
Max Gust Speed -    
Visibility 10 miles    
Events      
Averages and records for this station are not official NWS values.
T = Trace of Precipitation, MM = Missing Value Source: NWS Daily Summary

Daily Weather History Graph

Daily Weather History Graph

Search for Another Location

Airport or City:

Trip Planner

Search our weather history database for the weather conditions in past years. The results will help you decide how hot, cold, wet, or windy it might be!

Date:

Astronomy

Nov. 03, 2012 Rise Set
Actual Time 8:01 AM MDT 6:10 PM MDT
Civil Twilight 7:31 AM MDT 6:40 PM MDT
Nautical Twilight 6:57 AM MDT 7:14 PM MDT
Astronomical Twilight 6:24 AM MDT 7:47 PM MDT
Moon 9:52 PM MDT (11/3) 12:11 PM MDT (11/3)
Length of Visible Light 11h 08m
Length of Day
10h 08m
Waning Gibbous, 80% of the Moon is Illuminated
Nov 3
Waning Gibbous
Nov 6
Last Quarter
Nov 13
New
Nov 20
First Quarter
Nov 28
Full

Hourly Weather History & Observations

Time (MDT) Temp. Windchill Dew Point Humidity Pressure Visibility Wind Dir Wind Speed Gust Speed Precip Events Conditions
12:15 AM 26.6 °F 20.0 °F 24.8 °F 93% 30.21 in 10.0 mi North 5.8 mph - N/A   Partly Cloudy
12:35 AM 26.6 °F 22.6 °F 24.8 °F 93% 30.21 in 10.0 mi North 3.5 mph - N/A   Partly Cloudy
12:55 AM 26.6 °F 21.2 °F 24.8 °F 93% 30.21 in 10.0 mi North 4.6 mph - N/A   Clear
1:35 AM 26.6 °F 21.2 °F 24.8 °F 93% 30.22 in 10.0 mi NNE 4.6 mph - N/A   Clear
1:55 AM 24.8 °F 16.9 °F 23.0 °F 93% 30.21 in 10.0 mi North 6.9 mph - N/A   Clear
2:15 AM 23.0 °F 14.7 °F 21.2 °F 93% 30.21 in 10.0 mi North 6.9 mph - N/A   Clear
2:35 AM 24.8 °F 16.9 °F 23.0 °F 93% 30.21 in 10.0 mi North 6.9 mph - N/A   Clear
2:55 AM 24.8 °F 20.5 °F 21.2 °F 86% 30.22 in 10.0 mi NNE 3.5 mph - N/A   Clear
3:15 AM 24.8 °F 20.5 °F 23.0 °F 93% 30.22 in 10.0 mi NNE 3.5 mph - N/A   Clear
3:35 AM 24.8 °F 19.1 °F 23.0 °F 93% 30.21 in 10.0 mi North 4.6 mph - N/A   Clear
3:55 AM 24.8 °F - 21.2 °F 86% 30.21 in 10.0 mi Calm Calm - N/A   Clear
4:15 AM 24.8 °F - 23.0 °F 93% 30.21 in 10.0 mi Calm Calm - N/A   Clear
4:35 AM 23.0 °F 17.0 °F 21.2 °F 93% 30.22 in 10.0 mi North 4.6 mph - N/A   Clear
4:55 AM 21.2 °F 14.9 °F 21.2 °F 100% 30.22 in 10.0 mi NNE 4.6 mph - N/A   Clear
5:15 AM 23.0 °F 18.4 °F 21.2 °F 93% 30.22 in 10.0 mi NNE 3.5 mph - N/A   Clear
5:35 AM 21.2 °F 13.6 °F 21.2 °F 100% 30.22 in 10.0 mi North 5.8 mph - N/A   Clear
5:55 AM 19.4 °F 11.5 °F 19.4 °F 100% 30.23 in 10.0 mi North 5.8 mph - N/A   Clear
6:15 AM 21.2 °F - 21.2 °F 100% 30.24 in 10.0 mi Calm Calm - N/A   Clear
6:35 AM 21.2 °F 16.4 °F 19.4 °F 93% 30.24 in 10.0 mi NNE 3.5 mph - N/A   Clear
6:51 AM 21.2 °F - 19.4 °F 93% 30.24 in 10.0 mi Calm Calm - N/A   Clear
7:52 AM 19.4 °F - 19.4 °F 100% 30.26 in 10.0 mi Calm Calm - N/A   Clear
8:51 AM 23.0 °F 18.4 °F 21.2 °F 93% 30.27 in 10.0 mi NW 3.5 mph - N/A   Clear
9:51 AM 28.4 °F - 24.8 °F 86% 30.28 in 10.0 mi Calm Calm - N/A   Clear
10:52 AM 35.6 °F - 26.6 °F 70% 30.28 in 10.0 mi Calm Calm - N/A   Clear
11:51 AM 37.4 °F 34.9 °F 24.8 °F 60% 30.29 in 10.0 mi SSE 3.5 mph - N/A   Clear
12:55 PM 44.6 °F - 26.6 °F 49% 30.27 in 10.0 mi Calm Calm - N/A   Clear
1:52 PM 46.4 °F 43.5 °F 26.6 °F 46% 30.24 in 10.0 mi South 5.8 mph - N/A   Scattered Clouds
2:51 PM 50.0 °F - 24.8 °F 37% 30.22 in 10.0 mi South 8.1 mph - N/A   Clear
3:51 PM 51.8 °F - 24.8 °F 35% 30.21 in 10.0 mi South 6.9 mph - N/A   Clear
4:54 PM 51.8 °F - 21.2 °F 30% 30.22 in 10.0 mi WSW 6.9 mph - N/A   Clear
5:51 PM 48.2 °F - 23.0 °F 37% 30.23 in 10.0 mi SSW 5.8 mph - N/A   Clear
6:52 PM 44.6 °F - 24.8 °F 46% 30.24 in 10.0 mi Calm Calm - N/A   Clear
7:56 PM 42.8 °F 38.6 °F 26.6 °F 53% 30.25 in 10.0 mi SSW 6.9 mph - N/A   Clear
9:15 PM 39.2 °F 33.6 °F 26.6 °F 61% 30.26 in 10.0 mi SE 8.1 mph - N/A   Clear
9:35 PM 42.8 °F 41.1 °F 24.8 °F 49% 30.26 in 10.0 mi SSE 3.5 mph - N/A   Clear
10:15 PM 41.0 °F 39.0 °F 24.8 °F 53% 30.27 in 10.0 mi SE 3.5 mph - N/A   Clear
10:35 PM 39.2 °F 35.0 °F 24.8 °F 56% 30.27 in 10.0 mi SE 5.8 mph - N/A   Clear
11:15 PM 33.8 °F 29.6 °F 26.6 °F 75% 30.28 in 10.0 mi North 4.6 mph - N/A   Overcast
11:35 PM 33.8 °F - 26.6 °F 75% 30.27 in 10.0 mi Calm Calm - N/A   Overcast
11:55 PM 33.8 °F - 26.6 °F 75% 30.28 in 10.0 mi Calm Calm - N/A   Overcast